Guymon, OK

4:31 AM CDT on April 25, 2017 (GMT -0500)
Guymon Municipal

Weather History for KGUY - September, 2011

Change the Weather History Date:

Thursday, September 1, 2011

  Actual Average Record
Temperature  
Mean Temperature 90 °F 76 °F  
Max Temperature 103 °F 90 °F 103 °F (2011)
Min Temperature 77 °F 62 °F 55 °F (2001)
Degree Days  
Heating Degree Days 0 0  
Month to date heating degree days 0 0  
Since 1 July heating degree days 0 1  
Cooling Degree Days 25 11  
Month to date cooling degree days 25 11  
Year to date cooling degree days 1956 1260  
Growing Degree Days 40 (Base 50)    
Moisture  
Dew Point 49 °F    
Average Humidity 26    
Maximum Humidity 36    
Minimum Humidity 16    
Precipitation  
Precipitation 0.00 in 0.07 in 0.01 in (2005)
Month to date precipitation 0.00 0.07  
Year to date precipitation 5.00 14.84  
Snow  
Snow 0.00 in - - ()
Month to date snowfall 0.0  
Since 1 July snowfall 0.0  
Since 1 September snowfall 0.0  
Snow Depth 0.00 in    
Sea Level Pressure  
Sea Level Pressure 29.75 in    
Wind  
Wind Speed 19 mph (SSW)    
Max Wind Speed 33 mph    
Max Gust Speed 40 mph    
Visibility 10 miles    
Events      
T = Trace of Precipitation, MM = Missing Value Source: NWS Daily Summary

Daily Weather History Graph

Daily Weather History Graph

Search for Another Location

Airport or City:

Trip Planner

Search our weather history database for the weather conditions in past years. The results will help you decide how hot, cold, wet, or windy it might be!

Date:

Astronomy

Sep. 01, 2011 Rise Set
Actual Time 7:16 AM CDT 8:14 PM CDT
Civil Twilight 6:50 AM CDT 8:40 PM CDT
Nautical Twilight 6:19 AM CDT 9:12 PM CDT
Astronomical Twilight 5:46 AM CDT 9:44 PM CDT
Moon 11:30 AM CDT (9/1) 10:16 PM CDT (9/1)
Length of Visible Light 13h 50m
Length of Day
12h 57m
Waxing Crescent, 18% of the Moon is Illuminated
Sep 1
Waxing Crescent
Sep 4
First Quarter
Sep 12
Full
Sep 20
Last Quarter
Sep 27
New

Hourly Weather History & Observations

Time (CDT) Temp. Dew Point Humidity Pressure Visibility Wind Dir Wind Speed Gust Speed Precip Events Conditions
1:53 AM 84.0 °F 50.0 °F 31% 29.73 in 10.0 mi South 18.4 mph - N/A   Clear
2:53 AM 82.0 °F 48.0 °F 30% 29.73 in 10.0 mi South 18.4 mph - N/A   Clear
3:53 AM 81.0 °F 48.0 °F 31% 29.73 in 10.0 mi South 18.4 mph - N/A   Clear
4:53 AM 80.1 °F 48.0 °F 32% 29.74 in 10.0 mi SSW 16.1 mph - N/A   Clear
5:53 AM 79.0 °F 46.9 °F 32% 29.75 in 10.0 mi SSW 17.3 mph 23.0 mph N/A   Clear
6:53 AM 78.1 °F 46.9 °F 33% 29.78 in 10.0 mi SSW 16.1 mph - N/A   Clear
7:53 AM 77.0 °F 48.0 °F 36% 29.80 in 10.0 mi SSW 15.0 mph - N/A   Clear
9:53 AM 90.0 °F 48.9 °F 24% 29.80 in 10.0 mi SW 21.9 mph 35.7 mph N/A   Clear
10:53 AM 91.9 °F 48.0 °F 22% 29.80 in 10.0 mi SW 28.8 mph 36.8 mph N/A   Clear
11:53 AM 97.0 °F 48.9 °F 19% 29.78 in 10.0 mi SSW 26.5 mph 32.2 mph N/A   Clear
12:53 PM 100.0 °F 48.0 °F 17% 29.78 in 10.0 mi SW 20.7 mph - N/A   Clear
2:53 PM 102.9 °F 48.9 °F 16% 29.73 in 10.0 mi South 20.7 mph 33.4 mph N/A   Clear
3:53 PM 100.9 °F 48.0 °F 17% 29.71 in 10.0 mi South 24.2 mph 32.2 mph N/A   Clear
4:53 PM 100.9 °F 48.9 °F 17% 29.70 in 10.0 mi SSW 23.0 mph 29.9 mph N/A   Clear
5:53 PM 100.9 °F 50.0 °F 18% 29.70 in 10.0 mi South 18.4 mph 25.3 mph N/A   Clear
6:53 PM 98.1 °F 51.1 °F 20% 29.71 in 10.0 mi South 18.4 mph 24.2 mph N/A   Clear
8:53 PM 89.1 °F 52.0 °F 28% 29.74 in 10.0 mi South 13.8 mph - N/A   Clear
9:53 PM 87.1 °F 52.0 °F 30% 29.75 in 10.0 mi South 16.1 mph - N/A   Clear
10:53 PM 84.0 °F 52.0 °F 33% 29.77 in 10.0 mi South 11.5 mph - N/A   Clear
11:53 PM 82.9 °F 51.1 °F 33% 29.77 in 10.0 mi South 16.1 mph 23.0 mph N/A   Clear